Theta_e
304 304 304 305 305 304 304 304 305 305 306 306 306 305 304 304 305 306 307 308 307 307 308 309 310 311 311 310 310 308 308 307 308 309 310 310 309 308 305 305 304 302 300 299
304 303 303 303 303 304 304 304 305 305 306 306 304 304 304 304 305 305 307 307 307 307 307 308 309 309 310 310 308 309 308 307 307 307 309 310 309 307 305 304 304 301 300 299
303 302 302 304 304 302 301 302 303 305 305 305 305 305 304 305 305 306 306 305 305 305 306 307 309 309 309 310 306 307 308 307 307 306 307 309 308 306 305 304 303 301 300 299
303 302 303 302 302 302 302 303 304 304 306 305 304 303 304 304 304 306 304 304 304 304 305 306 308 309 309 308 309 306 307 307 306 307 306 307 308 306 305 304 303 301 300 299
302 302 302 302 302 301 302 304 304 304 303 303 303 303 303 303 303 303 303 303 303 304 305 307 308 309 308 306 308 306 306 307 306 307 307 307 308 306 304 305 302 301 300 298
303 303 303 301 301 301 303 304 303 303 303 303 303 304 304 302 302 302 302 303 303 304 305 307 309 308 307 304 306 305 306 306 306 306 307 307 307 306 305 304 302 300 299 298
301 303 302 300 300 302 303 304 302 302 302 302 303 303 302 301 302 302 302 303 303 305 307 308 308 307 307 304 303 304 304 305 305 306 306 307 307 306 305 304 302 300 298 298
300 300 300 300 301 302 302 302 302 302 302 302 301 301 301 301 301 302 302 302 302 304 308 308 307 306 305 301 301 303 305 304 305 306 305 306 306 305 305 303 300 299 298 297
301 301 300 300 301 301 301 302 302 302 301 301 301 301 301 301 301 301 301 301 301 304 308 307 306 305 300 299 301 304 305 303 303 304 304 306 306 305 304 302 299 298 298 297
300 301 301 301 301 301 302 301 301 300 300 301 301 300 300 300 301 300 301 301 301 303 308 307 305 301 297 299 300 302 304 303 304 303 303 304 305 305 303 300 298 298 297 297
301 301 301 301 301 301 301 300 299 299 299 300 300 300 300 300 300 299 299 299 301 303 307 307 304 299 297 297 298 300 301 302 300 305 303 304 305 303 301 299 299 298 297 296
302 302 302 302 301 301 300 299 299 298 298 299 300 299 299 299 299 298 298 299 300 302 305 306 303 297 297 296 296 298 298 298 300 303 303 304 301 299 298 298 297 297 297 296
302 301 301 300 300 300 299 298 298 298 298 299 299 299 298 298 298 297 296 297 298 301 302 306 305 300 298 295 296 296 297 299 301 302 301 300 298 298 297 297 297 297 296 296
299 299 299 298 299 298 298 297 297 297 297 298 298 298 297 297 297 296 295 295 297 301 301 305 305 302 302 301 297 297 297 299 299 299 298 298 297 297 297 297 296 296 296 295
299 299 299 299 298 298 297 296 296 296 296 297 297 297 296 296 296 296 295 296 296 299 301 303 306 304 301 301 301 301 298 298 298 298 299 299 298 297 296 296 297 296 296 295
298 298 298 298 297 296 295 295 295 296 296 296 297 296 295 295 295 295 294 295 296 298 299 300 305 304 304 303 302 302 302 302 302 302 300 298 297 297 297 297 296 295 295 296
296 296 295 295 294 294 294 294 294 295 295 296 295 294 294 294 294 294 294 295 297 298 298 299 303 300 301 300 300 299 298 298 297 297 297 297 297 297 296 295 295 296 296 295
294 294 293 293 293 293 293 293 294 296 295 294 293 293 294 294 294 294 294 295 297 298 299 301 302 299 299 299 299 298 298 297 297 297 297 297 296 295 295 296 296 295 294 294
292 292 292 293 293 293 293 294 295 293 293 293 293 294 293 294 294 294 294 296 297 298 300 301 299 299 299 300 298 297 297 297 297 297 296 295 295 295 295 295 294 293 293 293
293 293 293 293 293 294 294 293 293 293 293 293 293 293 293 294 294 294 294 296 298 300 300 300 298 299 300 299 299 297 297 297 296 295 295 295 295 294 294 293 293 292 292 292
293 293 293 293 292 293 293 293 293 292 292 292 293 294 295 295 295 295 296 297 298 299 301 300 299 299 299 300 298 297 297 295 294 295 295 294 294 292 292 292 292 291 291 291
292 293 293 293 293 293 293 293 292 292 292 293 295 297 298 297 297 298 299 298 298 299 298 298 298 298 299 298 297 296 294 294 294 294 293 292 292 292 292 291 291 292 291 291
293 293 293 293 293 293 293 293 293 293 292 293 295 296 297 298 298 298 297 297 297 297 298 299 298 298 297 296 295 294 294 294 293 292 291 291 291 291 291 291 291 291 292 291
294 293 293 293 293 293 293 293 293 293 293 293 294 294 295 296 296 296 296 297 298 298 298 297 297 297 296 294 294 294 293 292 292 291 290 290 290 290 290 290 290 290 290 290
294 293 293 293 293 292 292 292 293 293 293 293 293 294 294 295 295 295 296 296 296 297 297 297 295 294 294 294 293 293 292 292 291 291 290 290 290 290 290 290 290 290 290 290
293 293 293 292 292 292 292 292 292 292 292 293 293 293 293 293 294 293 294 294 294 295 296 295 295 295 294 293 293 292 292 292 291 291 291 290 290 290 290 290 290 289 289 290
293 293 292 292 292 292 291 291 291 291 291 292 292 292 292 292 292 292 293 293 294 294 294 294 294 293 293 293 293 292 292 292 291 291 291 291 290 289 289 288 289 289 289 289
Wind_Speed
16 18 19 22 22 25 21 21 18 25 24 26 20 21 30 25 28 29 31 33 35 39 37 28 30 33 37 32 27 23 25 33 38 40 46 48 46 43 40 37 34 30 27 23
19 19 20 19 23 22 20 20 17 18 19 9 18 30 27 30 29 31 34 32 34 40 45 39 31 35 37 39 31 25 25 29 34 40 43 49 48 45 41 37 34 31 28 24
13 15 12 11 15 10 20 20 17 15 18 10 19 26 30 31 32 29 31 35 40 43 42 41 38 36 40 41 38 30 29 28 33 40 44 49 48 45 43 39 35 33 29 24
6 4 6 7 16 19 16 16 15 17 7 16 22 39 32 30 28 24 36 42 44 46 44 43 40 46 44 39 40 35 32 33 34 39 45 50 49 47 44 40 37 34 29 23
3 4 13 16 6 8 14 23 13 6 18 32 34 34 30 19 24 37 41 41 43 44 42 39 41 42 40 42 40 38 36 37 37 40 45 51 52 50 46 42 40 34 29 24
4 9 11 19 15 14 6 17 2 27 26 26 29 14 19 35 39 41 39 41 41 41 40 32 39 43 44 42 40 41 38 39 37 38 44 51 52 50 46 40 36 33 28 23
10 8 10 8 8 9 8 10 32 34 30 31 17 22 45 39 40 42 40 40 42 39 39 40 40 45 47 46 42 37 36 35 37 38 45 49 51 48 43 41 36 32 27 23
3 4 9 6 9 7 16 38 33 35 33 31 36 39 42 39 35 39 39 40 42 40 37 40 39 40 46 47 36 28 29 33 37 37 43 47 50 47 42 40 36 32 27 23
7 8 12 29 30 34 29 30 35 33 38 33 37 39 38 40 39 38 41 40 38 39 36 41 39 36 47 37 24 17 23 31 34 34 41 46 49 46 44 40 36 31 27 21
6 21 20 28 34 36 28 32 36 37 34 36 32 39 39 38 37 38 40 38 39 38 35 36 37 38 37 25 18 15 23 30 34 37 42 43 45 43 42 38 33 27 24 20
17 24 27 17 15 29 32 31 34 38 34 35 34 39 37 38 35 37 40 39 36 35 34 31 30 34 35 22 14 19 29 31 36 33 39 43 41 39 35 30 25 24 19 16
7 22 19 24 26 25 30 36 34 35 42 38 28 35 36 38 34 38 39 37 34 32 31 20 26 32 25 16 10 17 21 30 36 39 41 42 40 34 25 20 19 16 15 13
19 17 20 25 29 26 29 38 40 37 36 38 44 33 35 37 37 36 39 34 31 31 31 23 23 14 26 8 7 16 24 30 35 40 41 38 35 32 29 22 17 14 13 12
14 21 23 22 32 38 36 41 43 44 38 33 34 37 35 37 40 38 38 38 33 29 30 26 17 4 4 10 13 19 26 34 38 36 33 31 28 23 19 14 15 16 14 12
21 25 26 31 36 39 38 39 42 44 39 37 32 35 37 37 39 38 40 40 32 29 27 22 13 7 9 5 4 6 20 27 29 26 22 19 16 15 15 16 15 13 14 12
30 33 34 34 36 40 39 41 35 42 41 39 38 44 38 35 39 37 38 38 30 29 27 26 18 11 14 18 12 12 17 12 14 15 16 16 17 18 19 14 13 15 14 12
33 38 42 43 42 38 39 39 37 40 41 41 46 43 38 36 34 34 31 31 25 27 27 24 16 12 20 15 3 22 22 19 15 17 20 21 19 15 12 12 13 13 12 11
31 32 34 36 40 43 45 46 44 39 45 45 43 41 37 34 33 33 31 29 27 24 20 17 18 22 21 14 24 23 20 18 17 19 17 14 13 12 12 12 12 11 10 9
35 37 38 38 38 41 41 43 43 46 45 45 43 40 38 37 35 32 27 24 25 22 16 14 22 31 19 13 21 16 16 17 16 13 12 13 13 10 9 10 9 7 7 7
39 38 39 40 38 37 39 40 42 43 43 41 41 41 38 34 28 25 22 21 20 18 11 18 24 29 19 17 19 16 14 13 12 12 11 10 11 10 8 7 7 6 5 6
43 40 38 33 34 32 34 34 34 34 36 36 35 34 31 23 17 17 14 16 9 4 8 24 27 21 21 15 19 13 10 10 12 11 10 9 7 6 7 7 6 4 2 3
35 35 33 29 30 28 27 28 28 30 29 27 24 22 11 7 7 7 3 9 9 11 17 24 26 23 21 19 16 12 13 13 11 11 10 9 8 8 8 7 6 4 2 1
29 26 26 25 23 24 25 28 30 33 32 29 22 21 20 14 12 14 20 16 14 22 26 23 20 18 18 13 12 14 11 11 12 10 8 7 7 7 6 5 5 6 6 5
26 23 19 19 21 23 27 29 31 35 37 34 28 24 24 24 23 22 22 20 20 20 21 20 18 16 14 13 12 13 12 11 9 7 8 7 6 6 3 3 4 4 2 2
21 19 19 20 22 23 23 26 30 32 34 36 35 34 32 31 30 28 27 26 24 23 21 15 14 14 14 14 12 11 10 9 8 6 6 4 2 3 2 2 0 0 2 2
17 17 17 19 20 21 23 25 26 27 28 29 29 29 28 27 26 24 22 20 18 15 12 12 12 11 10 10 10 9 7 7 5 4 4 2 2 2 3 4 3 2 2 4
14 14 16 17 19 21 21 22 24 25 24 23 22 22 21 19 18 18 16 13 11 9 9 10 10 8 7 5 5 4 5 4 2 1 0 1 3 4 6 7 6 3 5 6
Wind_Direction
279 288 289 286 294 283 287 274 267 277 281 286 313 311 300 299 304 310 308 312 313 322 321 327 325 335 333 330 317 295 272 252 241 232 223 216 214 211 209 208 209 209 210 213
289 284 279 290 277 278 273 278 286 281 292 324 296 294 299 306 317 317 312 311 312 316 317 321 325 328 327 329 320 301 284 263 247 235 223 215 212 209 206 207 207 206 209 215
279 281 298 278 265 276 301 295 287 300 304 319 314 306 311 311 305 314 321 319 311 310 308 313 317 325 322 324 327 302 281 266 248 237 225 214 210 207 205 204 204 206 210 215
283 304 264 258 289 295 283 284 301 299 310 303 308 305 313 308 300 308 317 313 310 309 307 313 314 325 319 317 320 306 278 261 247 236 227 215 207 205 204 203 203 206 209 214
251 271 286 281 275 317 319 298 306 340 320 322 321 318 310 316 315 310 303 305 305 305 306 306 311 320 310 313 314 303 272 256 243 231 224 215 206 203 202 200 201 204 208 213
284 280 285 276 302 323 356 291 17 342 314 308 314 312 299 318 315 312 309 308 312 316 316 306 318 313 311 311 306 290 272 255 242 231 223 215 205 202 200 201 202 202 206 212
273 267 266 263 270 319 293 293 320 311 304 302 300 292 296 306 309 316 317 321 326 326 322 319 318 317 311 313 301 289 258 250 238 230 222 213 204 200 198 197 199 201 205 210
248 249 276 219 321 332 289 298 301 300 301 302 299 300 301 308 306 316 320 325 330 322 318 319 315 320 318 312 301 278 248 240 230 225 218 209 202 197 196 195 194 197 202 208
201 237 263 281 296 297 301 298 303 304 304 302 300 301 305 309 311 314 317 317 324 319 310 322 321 326 323 310 293 264 238 228 220 218 213 204 197 193 191 191 193 196 203 208
295 268 265 288 292 297 305 304 310 312 312 313 302 304 308 311 312 313 315 313 320 320 313 323 327 335 329 312 304 258 233 223 216 204 202 196 192 190 187 187 191 199 204 210
258 275 294 290 286 297 309 310 313 311 305 306 308 306 308 307 309 312 313 316 321 325 319 322 329 350 341 336 278 228 211 205 199 190 194 185 183 183 186 190 200 202 207 213
272 290 288 288 307 312 305 304 305 310 309 307 302 303 310 308 307 309 313 316 316 323 316 321 341 2 357 334 250 221 191 188 182 176 178 172 171 169 176 184 186 196 205 219
283 301 307 307 309 306 307 309 308 309 304 300 307 304 306 306 305 307 311 315 315 317 323 304 332 16 17 3 158 158 168 169 167 163 162 162 164 168 169 174 187 200 215 227
336 331 318 320 304 308 305 311 304 302 302 298 300 305 305 304 304 304 312 318 317 312 320 301 329 264 356 27 97 139 146 152 152 152 154 154 158 166 177 185 199 205 215 220
320 312 295 301 306 303 301 305 303 298 304 303 303 306 305 303 300 298 308 313 312 305 309 303 286 249 183 201 237 102 126 131 133 135 141 148 162 178 184 191 197 210 213 220
317 311 309 301 302 304 304 305 302 299 304 299 303 308 304 300 297 295 300 307 305 301 304 309 253 255 225 194 193 255 212 198 181 173 147 155 179 188 192 196 203 208 211 201
316 315 316 311 309 307 305 305 302 302 303 302 304 305 305 302 298 296 297 304 296 292 296 300 278 239 182 158 147 141 133 140 150 175 181 181 182 191 201 203 208 197 193 207
310 303 302 300 300 304 306 308 307 302 306 304 302 301 300 297 294 296 297 299 298 302 297 292 261 182 158 136 148 138 151 165 174 175 172 184 193 197 191 187 192 196 205 219
317 312 314 311 308 305 302 302 307 311 309 307 303 299 296 293 291 289 295 293 301 304 300 265 184 173 153 160 150 152 146 165 170 174 180 181 178 181 187 197 204 201 196 208
319 318 316 319 317 318 316 318 314 311 311 308 305 302 296 291 289 287 291 293 299 292 270 213 177 171 172 151 150 148 167 172 178 177 170 168 179 187 200 200 194 189 198 220
324 325 328 323 324 329 331 328 325 324 323 321 318 312 303 298 292 284 289 303 298 277 186 182 172 164 157 152 143 161 169 180 176 170 176 183 174 165 165 162 160 163 182 259
333 327 334 340 338 339 350 351 351 352 348 349 349 349 331 323 316 313 258 223 154 161 144 145 151 156 157 144 149 164 179 167 165 163 157 154 159 162 166 165 161 173 183 288
342 345 344 346 351 358 5 13 18 19 21 24 22 44 63 86 101 113 114 141 146 142 138 142 142 136 126 127 147 156 153 152 150 146 148 147 147 142 155 178 193 204 215 245
348 352 352 357 5 13 17 22 27 31 35 43 48 55 69 78 86 96 103 120 122 125 119 117 117 119 120 137 144 144 139 134 122 117 127 125 128 123 140 212 226 226 223 262
349 358 4 9 13 15 21 25 30 34 38 40 47 54 64 71 77 81 87 89 91 93 104 99 94 118 126 130 134 134 127 122 134 127 105 101 87 72 41 14 297 231 269 304
354 3 14 19 17 18 21 26 31 33 33 40 45 50 54 59 64 68 72 76 84 99 103 101 100 117 125 132 136 135 138 143 137 128 104 41 354 345 327 311 280 224 255 265
354 359 7 16 16 18 21 20 25 24 29 30 39 43 46 51 59 67 71 77 80 82 83 85 97 105 111 119 143 155 164 154 154 139 144 291 327 339 335 322 303 261 250 257